This demonstration page uses our WeatherBlox Daily Observations layout. Learn more.

Left ArrowRight Arrow

41.55636, -103.73856

Hourly Observations for February 5, 2018

Temp ( °F °C ) Dew Point ( °F °C ) Humidity (%) Winds ( mph kmh ) Pressure ( in mb ) Visibility ( mi km ) Precip ( " mm )
12:53 am 00:53 Clear 27 -2.8 22 -5.6 81 81 SE 10 17 29.80 1009 10 16 N/A
1:53 am 01:53 Cloudy 27 -2.8 21 -6.1 78 78 E 10 17 29.77 1008 10 16 N/A
2:53 am 02:53 Cloudy 28 -2.2 24 -4.4 85 85 E 6 9 29.75 1008 10 16 N/A
3:53 am 03:53 Cloudy 30 -1.1 26 -3.3 85 85 E 3 6 29.75 1007 10 16 N/A
4:53 am 04:53 Cloudy 34 1.1 28 -2.2 79 79 NNE 6 9 29.79 1009 10 16 N/A
5:53 am 05:53 Cloudy 39 3.9 35 1.7 86 86 WNW 14 22 29.81 1010 10 16 N/A
6:53 am 06:53 Cloudy 37 2.8 35 1.7 93 93 NW 9 15 29.85 1011 10 16 0.01 0.25
7:51 am 07:51 Cloudy 28 -2 25 -4 86 86 NNE 29 46 29.97 1015 10 16 N/A
7:53 am 07:53 Cloudy 28 -2.2 25 -3.9 88 88 NNE 29 46 29.97 1015 10 16 N/A
8:03 am 08:03 Cloudy 26 -3.3 22 -5.6 84 84 N 33 54 30.00 1016 10 16 N/A
8:13 am 08:13 Cloudy 25 -3.9 20 -6.7 81 81 NNE 32 52 30.03 1017 10 16 N/A
8:51 am 08:51 Cloudy 19 -7 14 -10 79 79 NNE 16 26 30.18 1022 10 16 N/A
8:53 am 08:53 Cloudy 20 -6.7 14 -10 78 78 N 14 22 30.13 1020 10 16 N/A
9:51 am 09:51 Cloudy with Light Snow 19 -7 12 -11 73 73 N 8 13 30.27 1025 2 3 N/A
9:53 am 09:53 Cloudy with Light Snow 19 -7.2 13 -10.6 77 77 N 7 11 30.18 1022 1 2 0.01 0.25
10:02 am 10:02 Cloudy with Snow 19 -7 14 -10 79 79 N 8 13 30.27 1025 1 1 N/A
10:28 am 10:28 Mostly Cloudy with Snow 19 -7 14 -10 79 79 N 8 13 30.30 1026 1 1 N/A
10:38 am 10:38 Mostly Cloudy with Heavy Snow 19 -7 16 -9 86 86 NNW 8 13 30.30 1026 0 0 N/A
10:53 am 10:53 Cloudy with Snow 19 -7.2 15 -9.4 84 84 N 9 15 30.23 1024 1 1 0.05 1.27
11:00 am 11:00 Cloudy with Light Snow 19 -7 16 -9 86 86 N 8 13 30.30 1026 2 3 N/A
11:06 am 11:06 Cloudy with Light Snow 19 -7 14 -10 79 79 N 6 9 30.30 1026 2 3 N/A
11:29 am 11:29 Cloudy with Snow 19 -7.2 15 -9.4 84 84 N 6 9 30.30 1026 1 1 0.01 0.25
11:46 am 11:46 Cloudy with Light Snow 21 -6 16 -9 80 80 N 10 17 30.27 1025 1 2 N/A
11:53 am 11:53 Cloudy with Light Snow 20 -6.7 15 -9.4 81 81 N 9 15 30.21 1023 2 2 0.01 0.25
12:16 pm 12:16 Cloudy with Light Snow 21 -6 14 -10 74 74 NNW 8 13 30.30 1026 3 5 N/A
12:53 pm 12:53 Cloudy 21 -6.1 12 -11.1 68 68 NNE 9 15 30.17 1022 10 16 N/A
1:53 pm 13:53 Cloudy 22 -5.6 13 -10.6 68 68 NNE 9 15 30.16 1021 10 16 N/A
2:53 pm 14:53 Cloudy 22 -5.6 14 -10 71 71 N N/A 30.17 1022 10 16 N/A
3:53 pm 15:53 Cloudy 21 -6.1 13 -10.6 71 71 NE 5 7 30.16 1021 10 16 N/A
4:53 pm 16:53 Cloudy 19 -7.2 13 -10.6 77 77 E 5 7 30.17 1022 10 16 N/A
5:53 pm 17:53 Cloudy 18 -7.8 12 -11.1 77 77 SE 6 9 30.17 1022 10 16 N/A
6:53 pm 18:53 Cloudy 18 -7.8 12 -11.1 77 77 E 9 15 30.19 1022 10 16 N/A
7:53 pm 19:53 Cloudy 16 -8.9 10 -12.2 77 77 SE 9 15 30.26 1025 10 16 N/A
8:19 pm 20:19 Cloudy 16 -8.9 10 -12.2 77 77 ESE 13 20 30.39 1029 10 16 N/A
8:53 pm 20:53 Cloudy 17 -8.3 10 -12.2 74 74 ESE 13 20 30.28 1025 10 16 N/A
9:53 pm 21:53 Cloudy 17 -8.3 10 -12.2 74 74 ESE 13 20 30.27 1025 10 16 N/A
10:53 pm 22:53 Cloudy 18 -7.8 13 -10.6 81 81 SE 14 22 30.24 1024 10 16 N/A
11:04 pm 23:04 Cloudy 18 -8 12 -11 79 79 SE 12 19 30.36 1028 10 16 N/A
11:53 pm 23:53 Cloudy 18 -7.8 10 -12.2 71 71 ESE 18 30 30.21 1023 10 16 N/A

Powered by AerisWeather